TimeCST,TemperatureF,Dew PointF,Humidity,Sea Level PressureIn,VisibilityMPH,Wind Direction,Wind SpeedMPH,Gust SpeedMPH,PrecipitationIn,Events,Conditions,WindDirDegrees,DateUTC
12:15 AM,37.4,35.6,93,29.81,0.5,ESE,10.4,-,N/A,,Overcast,110,2013-01-11 06:15:00
12:35 AM,37.4,35.6,93,29.80,0.2,ESE,11.5,-,N/A,,Overcast,110,2013-01-11 06:35:00
12:55 AM,37.4,35.6,93,29.81,0.2,SE,6.9,-,N/A,,Overcast,130,2013-01-11 06:55:00
1:15 AM,37.4,35.6,93,29.78,0.5,ESE,6.9,-,N/A,,Overcast,110,2013-01-11 07:15:00
1:35 AM,37.4,35.6,93,29.77,0.5,East,6.9,-,N/A,,Overcast,90,2013-01-11 07:35:00
1:55 AM,37.4,35.6,93,29.76,0.5,East,6.9,-,N/A,,Overcast,100,2013-01-11 07:55:00
2:15 AM,37.4,35.6,93,29.74,0.5,East,8.1,-,N/A,,Overcast,80,2013-01-11 08:15:00
2:35 AM,37.4,35.6,93,29.72,0.2,East,6.9,-,N/A,,Overcast,90,2013-01-11 08:35:00
2:55 AM,39.2,35.6,87,29.72,0.5,East,6.9,-,N/A,,Overcast,90,2013-01-11 08:55:00
3:15 AM,37.4,35.6,93,29.73,0.2,ESE,3.5,-,N/A,,Overcast,120,2013-01-11 09:15:00
3:35 AM,39.2,35.6,87,29.72,0.2,ESE,6.9,-,N/A,,Overcast,120,2013-01-11 09:35:00
3:55 AM,37.4,35.6,93,29.71,0.2,SE,3.5,-,N/A,,Overcast,140,2013-01-11 09:55:00
4:15 AM,37.4,33.8,87,29.72,0.2,West,8.1,-,N/A,,Overcast,260,2013-01-11 10:15:00
4:35 AM,35.6,33.8,93,29.71,0.2,West,5.8,-,N/A,,Overcast,270,2013-01-11 10:35:00
4:55 AM,35.6,33.8,93,29.71,0.5,West,5.8,-,0.01,,Overcast,270,2013-01-11 10:55:00
5:15 AM,35.6,33.8,93,29.72,0.5,WSW,4.6,-,N/A,,Overcast,240,2013-01-11 11:15:00
5:35 AM,35.6,33.8,93,29.72,0.5,Calm,Calm,-,0.01,,Overcast,0,2013-01-11 11:35:00
5:55 AM,37.4,33.8,87,29.72,0.5,Calm,Calm,-,0.01,,Overcast,0,2013-01-11 11:55:00
6:15 AM,37.4,33.8,87,29.72,0.5,Calm,Calm,-,N/A,,Overcast,0,2013-01-11 12:15:00
6:35 AM,37.4,35.6,93,29.72,0.5,WSW,3.5,-,N/A,,Overcast,250,2013-01-11 12:35:00
6:55 AM,37.4,35.6,93,29.73,0.5,SW,4.6,-,N/A,,Overcast,230,2013-01-11 12:55:00
7:15 AM,37.4,35.6,93,29.73,0.2,WSW,5.8,-,N/A,,Overcast,240,2013-01-11 13:15:00
7:35 AM,37.4,35.6,93,29.73,0.2,Calm,Calm,-,N/A,,Mostly Cloudy,0,2013-01-11 13:35:00
7:55 AM,37.4,35.6,93,29.75,0.2,South,5.8,-,N/A,,Unknown,180,2013-01-11 13:55:00
8:15 AM,37.4,35.6,93,29.75,0.2,South,4.6,-,N/A,,Unknown,170,2013-01-11 14:15:00
8:35 AM,39.2,37.4,93,29.73,0.2,SSE,8.1,-,N/A,,Overcast,150,2013-01-11 14:35:00
8:55 AM,41.0,37.4,87,29.77,0.2,SSW,10.4,-,N/A,,Overcast,210,2013-01-11 14:55:00
9:35 AM,42.8,39.2,87,29.76,0.2,South,5.8,-,N/A,,Overcast,190,2013-01-11 15:35:00
9:55 AM,42.8,41.0,93,29.76,0.2,South,9.2,-,N/A,,Overcast,190,2013-01-11 15:55:00
10:15 AM,44.6,42.8,93,29.76,0.2,SSW,10.4,-,N/A,,Overcast,200,2013-01-11 16:15:00
10:35 AM,44.6,42.8,93,29.76,1.0,South,9.2,-,N/A,,Overcast,190,2013-01-11 16:35:00
10:55 AM,44.6,42.8,93,29.74,2.5,South,9.2,-,N/A,,Overcast,180,2013-01-11 16:55:00
11:15 AM,44.6,42.8,93,29.74,3.0,South,11.5,-,N/A,,Overcast,180,2013-01-11 17:15:00
11:55 AM,46.4,44.6,93,29.71,4.0,SSW,13.8,18.4,N/A,,Overcast,200,2013-01-11 17:55:00
12:15 PM,46.4,44.6,93,29.71,4.0,SSW,13.8,-,N/A,,Overcast,200,2013-01-11 18:15:00
12:35 PM,46.4,44.6,93,29.71,3.0,SSW,16.1,-,N/A,,Overcast,200,2013-01-11 18:35:00
12:55 PM,46.4,44.6,93,29.70,3.0,South,15.0,19.6,N/A,,Overcast,190,2013-01-11 18:55:00
1:15 PM,46.4,44.6,93,29.69,3.0,South,15.0,19.6,N/A,,Overcast,190,2013-01-11 19:15:00
2:15 PM,48.2,44.6,87,29.66,5.0,South,12.7,-,N/A,,Mostly Cloudy,170,2013-01-11 20:15:00
2:35 PM,48.2,46.4,93,29.66,7.0,SSE,12.7,-,N/A,,Scattered Clouds,160,2013-01-11 20:35:00
2:55 PM,48.2,44.6,87,29.67,8.0,SSE,12.7,-,N/A,,Scattered Clouds,160,2013-01-11 20:55:00
3:15 PM,48.2,44.6,87,29.66,10.0,SSE,12.7,-,N/A,,Clear,160,2013-01-11 21:15:00
3:35 PM,48.2,44.6,87,29.65,10.0,SSE,13.8,-,N/A,,Clear,150,2013-01-11 21:35:00
3:55 PM,48.2,44.6,87,29.65,10.0,SSE,11.5,-,N/A,,Partly Cloudy,150,2013-01-11 21:55:00
4:15 PM,48.2,44.6,87,29.64,10.0,SSE,13.8,-,N/A,,Clear,160,2013-01-11 22:15:00
4:35 PM,48.2,44.6,87,29.65,10.0,SSE,11.5,-,N/A,,Clear,150,2013-01-11 22:35:00
4:55 PM,48.2,44.6,87,29.65,10.0,SSE,11.5,-,N/A,,Clear,160,2013-01-11 22:55:00
5:15 PM,48.2,44.6,87,29.65,10.0,SSE,10.4,-,N/A,,Clear,160,2013-01-11 23:15:00
5:35 PM,48.2,44.6,87,29.65,10.0,SSE,11.5,-,N/A,,Clear,160,2013-01-11 23:35:00
5:55 PM,48.2,44.6,87,29.63,10.0,SSE,11.5,-,N/A,,Clear,160,2013-01-11 23:55:00
6:15 PM,48.2,44.6,87,29.64,10.0,South,12.7,-,N/A,,Clear,170,2013-01-12 00:15:00
6:35 PM,50.0,44.6,82,29.62,10.0,South,16.1,-,N/A,,Clear,170,2013-01-12 00:35:00
6:55 PM,50.0,44.6,82,29.64,10.0,South,17.3,-,N/A,,Clear,180,2013-01-12 00:55:00
7:15 PM,50.0,44.6,82,29.63,10.0,South,18.4,23.0,N/A,,Clear,180,2013-01-12 01:15:00
7:35 PM,50.0,44.6,82,29.64,10.0,South,16.1,-,N/A,,Clear,180,2013-01-12 01:35:00
7:55 PM,50.0,44.6,82,29.64,10.0,South,17.3,-,N/A,,Clear,180,2013-01-12 01:55:00
8:15 PM,50.0,44.6,82,29.64,10.0,South,15.0,-,N/A,,Clear,190,2013-01-12 02:15:00
8:35 PM,51.8,44.6,76,29.65,10.0,SSW,17.3,-,N/A,,Clear,200,2013-01-12 02:35:00
8:55 PM,51.8,44.6,76,29.65,10.0,South,19.6,24.2,N/A,,Clear,190,2013-01-12 02:55:00
9:15 PM,51.8,44.6,76,29.65,10.0,South,18.4,25.3,N/A,,Clear,190,2013-01-12 03:15:00
9:35 PM,51.8,44.6,76,29.64,10.0,South,19.6,-,N/A,,Clear,190,2013-01-12 03:35:00
9:55 PM,51.8,42.8,71,29.64,10.0,SSW,19.6,-,N/A,,Clear,200,2013-01-12 03:55:00
10:15 PM,51.8,42.8,71,29.64,10.0,SSW,21.9,25.3,N/A,,Clear,200,2013-01-12 04:15:00
10:35 PM,51.8,42.8,71,29.64,10.0,SSW,20.7,26.5,N/A,,Clear,200,2013-01-12 04:35:00
10:55 PM,51.8,44.6,76,29.64,10.0,SSW,19.6,25.3,N/A,,Clear,200,2013-01-12 04:55:00
11:15 PM,51.8,42.8,71,29.65,10.0,SSW,19.6,-,N/A,,Clear,200,2013-01-12 05:15:00
11:35 PM,51.8,42.8,71,29.65,10.0,SSW,21.9,26.5,N/A,,Clear,200,2013-01-12 05:35:00
11:55 PM,51.8,42.8,71,29.64,10.0,SSW,20.7,26.5,N/A,,Clear,200,2013-01-12 05:55:00